Weather in Andriivka

Ukraine / Donetsk Region     48°01′21″N   37°03′24″E
temp.,
°C
wind,
m/s
gust,
m/s
humid.,
%
clouds,
%
prec.,
mm/h
press.,
hPa
HPBL,
m
24 january, sun
sun2423:00+4s51193100 0.0 1018268
02:00+4s61392100 0.0 1017300
05:00+3sse5129599 0.1 1017294
08:00+2se51090100 0.6 1017260
11:00+4se61277100 0.0 1017303
14:00+4se51173100 0.0 1015300
17:00+2se61178100 0.0 1015283
20:00+1se61381100 0.0 1015307
25 january, mon
mon2523:00+1se71386100 0.0 1015327
02:00+1se61087100 0.0 1014274
05:00+2se61192100 0.1 1014276
08:00+2sse6139490 0.1 1014291
11:00+6sse7128688 0.0 1014460
14:00+6sse7128267 0.0 1011380
17:00+4se7148962 0.0 1011337
20:00+4se8187581 0.0 1010384
26 january, tue
tue2623:00+3se91968100 0.0 1008503
02:00+3sse101978100 0.3 1007567
05:00+5ssw5139295 0.8 1008456
08:00+3ssw5128674 0.8 1011311
11:00+6s4774100 0.0 1012461
14:00+7sse61181100 0.0 1010533
17:00+7sse71489100 0.0 1009440
20:00+6sse71483100 0.0 1009453
27 january, wed
wed2723:00+5sse71485100 0.0 1009384
02:00+5se51089100 0.4 1008228
05:00+4se61382100 0.0 1005360
08:00+5se81676100 0.0 1004422
11:00+8se91663100 0.0 1003537
14:00+7se81463100 0.0 1001454
17:00+5se91671100 0.0 1001414
20:00+5se81676100 0.0 1001450
28 january, thu
thu2823:00+4se81581100 0.0 1001429
02:00+4se71482100 0.0 1000457
05:00+4sse61290100 0.0 1000382
08:00+3s61382100 0.0 1002601
11:00+2ssw5995100 0.1 1003544
14:00+2ssw5888100 0.1 1003608
17:000sw61093100 0.2 1005651
20:000wsw7118597 0.3 1007779